[[{"header":{"parameterUnit":"m.s-1","parameterCategory":2,"la1":30.2991,"la2":30.254,"lo1":-89.0895,"lo2":-89.0444,"dy":0.0017,"dx":0.0017,"nx":28,"ny":28,"refTime":"2024-04-10T21:00:00:Z","depth":"0","parameterNumber":2,"parameterNumberName":"U-component_of_CURRENTS"},"data":[0,0,0,0,0,0,0,0,0,0,0,0,0,0,0,0,0,0,0,0,0,0,0,0,0,0,0,0,0,0,0,0,0,0,0,0,0,0,0,0,0,0,0,0,0,0,0,0,0,0,0,0,0,0,0,0,0,0,-0.428,-0.4283,0,-0.4487,-0.4488,-0.449,-0.4474,-0.4472,-0.447,-0.4468,-0.4279,-0.4276,-0.4272,0,0,0,0,0,0,0,0,0,0,0,0,0,-0.3875,-0.3882,-0.428,-0.4284,-0.4287,-0.4487,-0.4489,-0.449,-0.4474,-0.4472,-0.4469,-0.4467,-0.428,-0.4276,-0.4272,0,0,0,0,0,0,0,0,0,0,0,0,0,-0.4051,-0.3884,-0.4279,-0.4313,-0.4319,-0.4487,-0.4489,-0.4491,-0.4475,-0.4472,-0.4469,-0.4466,-0.4281,-0.4276,-0.4271,-0.43,0,0,-0.4257,-0.4255,0,0,0,0,0,0,0,0,-0.4041,-0.4064,-0.4304,-0.4311,-0.4318,-0.4463,-0.4278,-0.4412,-0.4475,-0.4402,-0.4468,-0.4465,-0.4314,-0.4306,-0.4339,-0.4291,-0.4283,-0.4256,-0.4253,-0.4251,-0.425,0,0,0,0,0,0,0,-0.4029,-0.4056,-0.4349,-0.4309,-0.4318,-0.432,-0.434,-0.4303,-0.4354,-0.4408,-0.4411,-0.4455,-0.4313,-0.4344,-0.4334,-0.428,-0.4256,-0.4252,-0.4249,-0.4247,-0.4276,-0.4279,0,0,0,0,0,0,-0.4034,-0.4045,-0.4343,-0.4356,-0.4184,-0.4331,-0.4353,-0.4409,-0.4364,-0.4361,-0.4458,-0.4454,-0.4354,-0.4339,-0.4326,-0.4324,-0.4251,-0.4247,-0.4244,-0.4272,-0.4276,-0.428,0,0,0,0,0,0,-0.4025,-0.4059,-0.4334,-0.4214,-0.4251,-0.4342,-0.4404,-0.4415,-0.4445,-0.4408,-0.4394,-0.4477,-0.4351,-0.4333,-0.4329,-0.4317,-0.4244,-0.424,-0.4268,-0.4273,-0.4278,-0.4338,0,0,0,0,0,0,-0.4012,-0.4054,-0.4076,-0.4215,-0.4258,-0.4453,-0.4409,-0.4421,-0.4483,-0.448,-0.442,-0.4401,-0.4348,-0.4337,-0.4324,-0.4309,-0.4236,-0.4263,-0.427,-0.4277,-0.4332,-0.4345,-0.4357,0,0,0,0,0,-0.3997,-0.4066,-0.4076,-0.4112,-0.4293,-0.4458,-0.448,-0.4524,-0.4487,-0.453,-0.4495,-0.4403,-0.4371,-0.4338,-0.4321,-0.4303,-0.426,-0.4268,-0.4276,-0.4326,-0.4343,-0.4356,0,0,0,0,0,0,-0.3889,-0.4076,-0.409,-0.4204,-0.4325,-0.446,-0.4514,-0.4535,-0.455,-0.4523,-0.4451,-0.4434,-0.4439,-0.4386,-0.4351,-0.4345,-0.4299,-0.4304,-0.4342,-0.4357,-0.4369,-0.4343,-0.4232,0,0,0,0,0,-0.3884,-0.3986,-0.4146,-0.4234,-0.4301,-0.4399,-0.4461,-0.4502,-0.4553,-0.4558,-0.4528,-0.4488,-0.4469,-0.4423,-0.4424,-0.4398,-0.435,-0.4384,-0.4397,-0.4407,-0.4384,-0.4316,-0.4317,-0.4308,-0.4307,-0.4307,0,0,-0.3866,-0.3982,-0.4035,-0.4218,-0.4308,-0.4419,-0.4427,-0.4548,-0.4592,-0.4528,-0.4557,-0.4548,-0.4491,-0.4493,-0.4482,-0.4426,-0.4405,-0.4417,-0.4425,-0.4396,-0.4324,-0.4324,-0.4324,-0.4313,-0.4312,-0.4311,0,0,-0.3933,-0.3991,-0.4118,-0.4217,-0.4382,-0.4438,-0.4475,-0.4619,-0.4629,-0.4686,-0.4649,-0.4637,-0.4616,-0.4569,-0.4533,-0.4612,-0.4508,-0.4617,-0.4596,-0.4532,-0.453,-0.4527,-0.453,-0.4527,-0.4576,-0.4577,-0.4577,0,-0.3892,-0.4069,-0.4173,-0.4313,-0.4374,-0.4445,-0.4553,-0.4597,-0.4706,-0.469,-0.4699,-0.4676,-0.4642,-0.4579,-0.4624,-0.4626,-0.46,-0.4528,-0.454,-0.4535,-0.4531,-0.4534,-0.4529,-0.458,-0.458,-0.458,-0.4579,0,-0.4076,-0.4181,-0.4264,-0.4437,-0.4508,-0.462,-0.4697,-0.4732,-0.4735,-0.4756,-0.4747,-0.4736,-0.4691,-0.4698,-0.4676,-0.463,-0.4633,-0.4592,-0.448,-0.4534,-0.4538,-0.4531,-0.4586,-0.4585,-0.4583,-0.4583,0,0,-0.4051,-0.4338,-0.4351,-0.4419,-0.4569,-0.4643,-0.4689,-0.4744,-0.4735,-0.4779,-0.4758,-0.4747,-0.4721,-0.4686,-0.4656,-0.4596,-0.4588,-0.4579,-0.4574,-0.4546,-0.4493,-0.4554,-0.4553,-0.4533,-0.4531,-0.453,-0.4528,0,-0.4145,-0.4392,-0.4497,-0.4626,-0.4732,-0.4756,-0.4786,-0.4806,-0.4808,-0.4809,-0.4739,-0.4738,-0.4715,-0.4701,-0.4637,-0.4618,-0.4565,-0.4596,-0.4476,-0.4473,-0.4486,-0.4544,-0.4545,-0.4546,-0.4522,-0.452,-0.452,0,-0.4247,-0.4409,-0.4581,-0.4697,-0.4738,-0.4794,-0.4781,-0.4825,-0.4803,-0.4803,-0.4746,-0.4731,-0.4667,-0.4655,-0.4557,-0.4578,-0.454,-0.4512,-0.4509,-0.4523,-0.4519,-0.448,-0.4535,-0.4548,-0.4509,-0.451,-0.4511,0,-0.4137,-0.4402,-0.4517,-0.4574,-0.4752,-0.4763,-0.48,-0.48,-0.4806,-0.4787,-0.4796,-0.471,-0.4695,-0.4603,-0.4574,-0.4556,-0.4491,-0.4445,-0.4457,-0.4463,-0.4417,-0.4423,-0.4425,-0.4356,-0.4356,-0.4356,-0.4356,0,-0.4134,-0.4205,-0.4485,-0.4541,-0.4623,-0.4724,-0.4733,-0.4762,-0.4786,-0.4791,-0.4777,-0.4775,-0.468,-0.4645,-0.4579,-0.4527,-0.4481,-0.4466,-0.4453,-0.4454,-0.4462,-0.4432,-0.442,-0.4356,-0.4356,-0.4356,-0.4356,0,-0.3949,-0.4147,-0.4288,-0.4519,-0.4578,-0.4605,-0.4712,-0.4727,-0.477,-0.4783,-0.4786,-0.4811,-0.4784,-0.4717,-0.4616,-0.4561,-0.4466,-0.4477,-0.4534,-0.4527,-0.4543,-0.4536,-0.4444,-0.4345,-0.4475,-0.4476,-0.4477,0,-0.3894,-0.3968,-0.423,-0.4317,-0.4423,-0.4508,-0.4568,-0.4673,-0.4705,-0.4803,-0.4813,-0.4839,-0.4849,-0.4775,-0.4684,-0.4595,-0.4515,-0.4548,-0.4494,-0.4558,-0.4537,-0.4483,-0.4399,-0.4485,-0.4486,-0.4487,-0.4488,0,-0.3765,-0.3843,-0.3963,-0.4183,-0.4298,-0.4387,-0.4493,-0.4526,-0.4649,-0.4725,-0.4828,-0.4868,-0.4876,-0.4843,-0.4768,-0.4663,-0.4517,-0.4565,-0.4572,-0.4507,-0.4497,-0.4392,-0.4529,-0.4496,-0.4495,-0.4494,-0.4494,-0.4494,-0.3625,-0.3672,-0.3854,-0.4021,-0.4159,-0.4235,-0.4206,-0.4378,-0.4449,-0.4532,-0.4733,-0.4818,-0.4967,-0.4875,-0.4795,-0.4702,-0.4563,-0.4601,-0.4581,-0.4517,-0.443,-0.4638,-0.4625,-0.4625,-0.4625,-0.4624,-0.4624,0,-0.3485,-0.3555,-0.37,-0.3873,-0.3938,-0.4057,-0.4132,-0.4061,-0.4119,-0.4372,-0.4494,-0.4821,-0.4888,-0.4949,-0.4956,-0.48,-0.4606,-0.4652,-0.4553,-0.4452,-0.4598,-0.4611,-0.4665,-0.4665,-0.4665,-0.4665,-0.4665,-0.4665,-0.3405,-0.3453,-0.3547,-0.3623,-0.3712,-0.3632,-0.3608,-0.3578,-0.3668,-0.3826,-0.4115,-0.4369,-0.457,-0.5176,-0.5132,-0.4914,-0.4698,-0.4592,-0.4482,-0.4624,-0.4616,-0.461,-0.4621,-0.4676,-0.4676,-0.428,-0.4277,-0.4276]},{"header":{"parameterUnit":"m.s-1","parameterCategory":2,"la1":30.2991,"la2":30.254,"lo1":-89.0895,"lo2":-89.0444,"dy":0.0017,"dx":0.0017,"nx":28,"ny":28,"refTime":"2024-04-10T21:00:00:Z","depth":"0","parameterNumber":3,"parameterNumberName":"V-component_of_CURRENTS"},"data":[0,0,0,0,0,0,0,0,0,0,0,0,0,0,0,0,0,0,0,0,0,0,0,0,0,0,0,0,0,0,0,0,0,0,0,0,0,0,0,0,0,0,0,0,0,0,0,0,0,0,0,0,0,0,0,0,0,0,0.0206,0.0209,0,0.0484,0.0487,0.049,0.0586,0.0585,0.0584,0.0583,0.0741,0.0746,0.0751,0,0,0,0,0,0,0,0,0,0,0,0,0,-0.0013,-0.0011,0.0206,0.0209,0.0213,0.0484,0.0487,0.0491,0.0586,0.0585,0.0584,0.0583,0.074,0.0746,0.0752,0,0,0,0,0,0,0,0,0,0,0,0,0,0.0154,-0.001,0.0205,0.0294,0.0305,0.0483,0.0488,0.0492,0.0587,0.0585,0.0584,0.0582,0.0738,0.0745,0.0753,0.0829,0,0,0.0776,0.0779,0,0,0,0,0,0,0,0,0.0144,0.0161,0.0277,0.0288,0.0301,0.05,0.0469,0.0599,0.0587,0.0478,0.0583,0.0582,0.0652,0.0666,0.0722,0.0836,0.0843,0.0777,0.0781,0.0785,0.0787,0,0,0,0,0,0,0,0.0132,0.0151,0.0315,0.0281,0.0296,0.04,0.0419,0.0496,0.0566,0.0488,0.0496,0.0529,0.0657,0.0714,0.0726,0.0846,0.0777,0.0783,0.0788,0.0791,0.1085,0.1089,0,0,0,0,0,0,0.009,0.0139,0.0306,0.0323,0.0219,0.0404,0.0426,0.0437,0.0569,0.0589,0.053,0.0533,0.0702,0.0717,0.0731,0.0827,0.0785,0.0792,0.0796,0.1082,0.1086,0.109,0,0,0,0,0,0,0.0084,0.0101,0.0295,0.024,0.0272,0.0407,0.042,0.0443,0.0494,0.0602,0.0619,0.0556,0.0701,0.0721,0.0818,0.0833,0.0795,0.0802,0.1078,0.1083,0.1088,0.1018,0,0,0,0,0,0,0.0076,0.0097,0.0085,0.0236,0.0273,0.0384,0.0422,0.0449,0.0518,0.0523,0.063,0.0645,0.0702,0.0806,0.0825,0.0843,0.0808,0.1074,0.1081,0.1086,0.1017,0.102,0.1023,0,0,0,0,0,0.0067,0.004,0.0082,0.0103,0.0253,0.0385,0.0413,0.0506,0.052,0.0544,0.0634,0.0641,0.0858,0.0815,0.0837,0.0856,0.1071,0.1079,0.1086,0.1015,0.102,0.1023,0,0,0,0,0,0,-0.0067,0.0053,0.01,0.011,0.0236,0.0401,0.0423,0.05,0.0596,0.0587,0.0682,0.0705,0.0804,0.0852,0.0803,0.0968,0.0966,0.0978,0.0905,0.091,0.0914,0.0854,0.0815,0,0,0,0,0,-0.0099,-0.009,0.0067,0.0076,0.0127,0.0278,0.0338,0.0413,0.0524,0.0564,0.0657,0.0755,0.0858,0.0895,0.0995,0.1073,0.1108,0.1106,0.111,0.1111,0.1085,0.1167,0.1173,0.1114,0.1113,0.1113,0,0,-0.0144,-0.008,-0.0072,0.005,0.0143,0.0232,0.0308,0.0392,0.0469,0.0565,0.0672,0.0772,0.0889,0.0992,0.1037,0.1023,0.1156,0.1121,0.112,0.1093,0.1175,0.118,0.1184,0.1118,0.1118,0.1117,0,0,-0.0215,-0.0176,-0.0174,-0.0073,0.0064,0.0172,0.0191,0.0366,0.0434,0.0566,0.0662,0.0768,0.0922,0.1014,0.1076,0.1159,0.1183,0.1195,0.1143,0.1224,0.1227,0.123,0.1296,0.1305,0.118,0.118,0.118,0,-0.0271,-0.0243,-0.0148,-0.0095,-0.0023,0.0137,0.0191,0.0304,0.0495,0.0547,0.0581,0.0839,0.0933,0.1059,0.1095,0.1159,0.1199,0.1105,0.122,0.1224,0.1229,0.1295,0.1306,0.1178,0.1178,0.1178,0.1179,0,-0.0311,-0.0271,-0.0263,-0.0145,-0.0056,0.0011,0.0186,0.0276,0.0377,0.0499,0.0648,0.0806,0.094,0.1009,0.1075,0.1169,0.1188,0.1219,0.1185,0.1229,0.1298,0.1311,0.1174,0.1175,0.1176,0.1177,0,0,-0.0465,-0.0321,-0.0314,-0.027,-0.008,-0.0018,0.0104,0.0258,0.0312,0.0499,0.0583,0.079,0.086,0.0938,0.1048,0.1122,0.121,0.1165,0.1171,0.1185,0.1371,0.1518,0.1547,0.1247,0.1249,0.125,0.1409,0,-0.0513,-0.0475,-0.036,-0.0287,-0.0247,-0.0067,0.0026,0.0177,0.0318,0.0443,0.0614,0.0741,0.084,0.0895,0.0992,0.1172,0.1238,0.1163,0.1365,0.1371,0.1459,0.1566,0.1729,0.1895,0.1421,0.1424,0.1425,0,-0.0577,-0.0545,-0.0507,-0.038,-0.0347,-0.0274,-0.0132,-0.002,0.0193,0.0296,0.045,0.0603,0.0781,0.084,0.1117,0.106,0.1192,0.1316,0.1326,0.1486,0.1543,0.1781,0.1937,0.2296,0.1445,0.1444,0.1442,0,-0.0761,-0.0643,-0.0636,-0.0582,-0.0409,-0.0373,-0.0285,-0.0093,-0.0016,0.0191,0.0268,0.0505,0.0635,0.0834,0.1134,0.1111,0.1429,0.1431,0.1681,0.1692,0.1884,0.191,0.2373,0.1582,0.1582,0.1581,0.1581,0,-0.0856,-0.085,-0.0733,-0.0724,-0.0727,-0.0551,-0.0516,-0.0386,-0.0206,-0.0119,0.0152,0.0291,0.0636,0.089,0.1109,0.1473,0.1417,0.1692,0.1758,0.1872,0.1894,0.2255,0.2357,0.1587,0.1586,0.1585,0.1584,0,-0.1034,-0.095,-0.0947,-0.0832,-0.0809,-0.0824,-0.0691,-0.0656,-0.0456,-0.0329,-0.0269,0.0131,0.0508,0.0868,0.1246,0.1465,0.2001,0.189,0.2006,0.2085,0.2645,0.2733,0.3143,0.332,0.2184,0.2189,0.2193,0,-0.1112,-0.1132,-0.1087,-0.1118,-0.1069,-0.1053,-0.1035,-0.0831,-0.0759,-0.0409,-0.0353,0.0068,0.0434,0.1096,0.1586,0.2048,0.223,0.2399,0.2396,0.2739,0.2884,0.2901,0.3019,0.2622,0.263,0.2636,0.264,0,-0.1264,-0.1258,-0.1266,-0.1351,-0.1362,-0.1346,-0.1286,-0.1256,-0.0979,-0.0789,-0.0427,-0.0092,0.068,0.1413,0.2055,0.2301,0.2701,0.2533,0.2881,0.3273,0.3331,0.3512,0.243,0.2693,0.2688,0.2684,0.2681,0.2679,-0.1387,-0.1462,-0.1498,-0.1575,-0.1604,-0.1608,-0.1601,-0.1453,-0.1291,-0.0915,-0.0515,0.0108,0.1252,0.2269,0.2592,0.3377,0.3154,0.3552,0.3626,0.3609,0.382,0.2853,0.3196,0.3194,0.3192,0.319,0.3189,0,-0.1525,-0.161,-0.1715,-0.1786,-0.1867,-0.1811,-0.1736,-0.1644,-0.144,-0.0931,-0.046,0.0915,0.201,0.2959,0.4115,0.4477,0.4497,0.4603,0.4698,0.4758,0.3941,0.4008,0.4557,0.4557,0.4556,0.4556,0.4556,0.4555,-0.1604,-0.1755,-0.1819,-0.1999,-0.205,-0.2066,-0.2023,-0.1808,-0.1423,-0.0578,0.0241,0.0913,0.2387,0.4428,0.5466,0.5486,0.5762,0.5685,0.5788,0.5282,0.5189,0.5101,0.5199,0.5988,0.599,0.6617,0.6624,0.6629]}],[{"header":{"parameterUnit":"m.s-1","parameterCategory":2,"la1":30.2991,"la2":30.254,"lo1":-89.0895,"lo2":-89.0444,"dy":0.0017,"dx":0.0017,"nx":28,"ny":28,"refTime":"2024-04-10T21:00:00:Z","depth":"2","parameterNumber":2,"parameterNumberName":"U-component_of_CURRENTS"},"data":[0,0,0,0,0,0,0,0,0,0,0,0,0,0,0,0,0,0,0,0,0,0,0,0,0,0,0,0,0,0,0,0,0,0,0,0,0,0,0,0,0,0,0,0,0,0,0,0,0,0,0,0,0,0,0,0,0,0,-0.4246,-0.4249,0,-0.4454,-0.4455,-0.4457,-0.4442,-0.444,-0.4438,-0.4436,-0.4248,-0.4245,-0.4241,0,0,0,0,0,0,0,0,0,0,0,0,0,-0.3838,-0.3845,-0.4245,-0.4249,-0.4253,-0.4454,-0.4456,-0.4457,-0.4442,-0.444,-0.4438,-0.4435,-0.4249,-0.4245,-0.4241,0,0,0,0,0,0,0,0,0,0,0,0,0,-0.4016,-0.3847,-0.4245,-0.4279,-0.4285,-0.4454,-0.4456,-0.4458,-0.4443,-0.444,-0.4437,-0.4434,-0.425,-0.4245,-0.4241,-0.4269,0,0,-0.4226,-0.4224,0,0,0,0,0,0,0,0,-0.4005,-0.4029,-0.427,-0.4277,-0.4284,-0.443,-0.4244,-0.4379,-0.4444,-0.4369,-0.4436,-0.4433,-0.4282,-0.4275,-0.4308,-0.426,-0.4252,-0.4225,-0.4223,-0.422,-0.4219,0,0,0,0,0,0,0,-0.3993,-0.402,-0.4315,-0.4275,-0.4284,-0.4287,-0.4307,-0.427,-0.4322,-0.4376,-0.4378,-0.4423,-0.4281,-0.4313,-0.4302,-0.4249,-0.4226,-0.4221,-0.4218,-0.4216,-0.4246,-0.4249,0,0,0,0,0,0,-0.3998,-0.4009,-0.4309,-0.4322,-0.4149,-0.4297,-0.432,-0.4376,-0.4331,-0.4329,-0.4425,-0.4422,-0.4323,-0.4308,-0.4295,-0.4293,-0.422,-0.4216,-0.4213,-0.4242,-0.4247,-0.4251,0,0,0,0,0,0,-0.3988,-0.4023,-0.43,-0.4179,-0.4216,-0.4309,-0.4371,-0.4382,-0.4413,-0.4376,-0.4362,-0.4446,-0.432,-0.4302,-0.4299,-0.4286,-0.4214,-0.4209,-0.4238,-0.4244,-0.4249,-0.4307,0,0,0,0,0,0,-0.3976,-0.4018,-0.4041,-0.418,-0.4224,-0.442,-0.4376,-0.4388,-0.4451,-0.4448,-0.4389,-0.437,-0.4316,-0.4307,-0.4294,-0.4278,-0.4206,-0.4233,-0.424,-0.4247,-0.4301,-0.4314,-0.4326,0,0,0,0,0,-0.3961,-0.403,-0.4041,-0.4077,-0.4259,-0.4425,-0.4447,-0.4491,-0.4455,-0.4498,-0.4464,-0.4371,-0.434,-0.4307,-0.429,-0.4272,-0.423,-0.4238,-0.4246,-0.4295,-0.4312,-0.4325,0,0,0,0,0,0,-0.3853,-0.4041,-0.4054,-0.417,-0.4291,-0.4427,-0.4481,-0.4502,-0.4518,-0.4492,-0.442,-0.4403,-0.4409,-0.4356,-0.432,-0.4315,-0.4269,-0.4274,-0.4311,-0.4326,-0.4338,-0.4311,-0.4202,0,0,0,0,0,-0.3847,-0.395,-0.4111,-0.4199,-0.4267,-0.4366,-0.4428,-0.4469,-0.4521,-0.4526,-0.4497,-0.4457,-0.4438,-0.4392,-0.4394,-0.4368,-0.4319,-0.4354,-0.4366,-0.4376,-0.4353,-0.4284,-0.4285,-0.4278,-0.4278,-0.4278,0,0,-0.3829,-0.3946,-0.3999,-0.4183,-0.4273,-0.4385,-0.4393,-0.4516,-0.456,-0.4496,-0.4525,-0.4518,-0.4461,-0.4462,-0.4452,-0.4395,-0.4374,-0.4387,-0.4395,-0.4365,-0.4293,-0.4292,-0.4292,-0.4283,-0.4282,-0.4282,0,0,-0.3895,-0.3955,-0.4082,-0.4182,-0.4348,-0.4405,-0.4442,-0.4586,-0.4597,-0.4654,-0.4618,-0.4606,-0.4586,-0.4538,-0.4502,-0.4581,-0.4477,-0.4586,-0.4564,-0.45,-0.4497,-0.4494,-0.4497,-0.4494,-0.4546,-0.4546,-0.4546,0,-0.3854,-0.4032,-0.4137,-0.4278,-0.434,-0.4412,-0.452,-0.4564,-0.4674,-0.4657,-0.4667,-0.4645,-0.4611,-0.4547,-0.4592,-0.4594,-0.4569,-0.4496,-0.4507,-0.4503,-0.4498,-0.4501,-0.4496,-0.455,-0.4549,-0.4549,-0.4548,0,-0.4038,-0.4145,-0.4228,-0.4402,-0.4474,-0.4586,-0.4664,-0.4699,-0.4702,-0.4723,-0.4714,-0.4703,-0.4658,-0.4665,-0.4644,-0.4596,-0.46,-0.456,-0.4447,-0.4501,-0.4504,-0.4498,-0.4555,-0.4554,-0.4553,-0.4552,0,0,-0.401,-0.4301,-0.4314,-0.4384,-0.4535,-0.4609,-0.4655,-0.4709,-0.47,-0.4745,-0.4723,-0.4712,-0.4686,-0.4651,-0.4621,-0.456,-0.4552,-0.4544,-0.4539,-0.4511,-0.4456,-0.4516,-0.4515,-0.4498,-0.4496,-0.4494,-0.4492,0,-0.4104,-0.4352,-0.4459,-0.459,-0.4697,-0.4721,-0.4751,-0.4771,-0.4772,-0.4772,-0.4702,-0.4701,-0.4679,-0.4665,-0.4601,-0.4582,-0.4529,-0.4559,-0.444,-0.4437,-0.4449,-0.4505,-0.4054,-0.4017,-0.4485,-0.4484,-0.4483,0,-0.4206,-0.4369,-0.4541,-0.466,-0.4702,-0.4758,-0.4744,-0.4788,-0.4764,-0.4764,-0.4707,-0.4693,-0.4628,-0.4617,-0.4519,-0.454,-0.4502,-0.4474,-0.4472,-0.4484,-0.4482,-0.4031,-0.3987,-0.4471,-0.4472,-0.4473,-0.4474,0,-0.4094,-0.4361,-0.4477,-0.4534,-0.4714,-0.4725,-0.4763,-0.4761,-0.4767,-0.4747,-0.4756,-0.467,-0.4655,-0.4563,-0.4535,-0.4517,-0.4451,-0.4406,-0.4417,-0.4423,-0.3992,-0.3965,-0.4315,-0.4315,-0.4315,-0.4315,-0.4315,0,-0.409,-0.4163,-0.4443,-0.45,-0.4582,-0.4685,-0.4693,-0.4722,-0.4746,-0.475,-0.4736,-0.4734,-0.4639,-0.4604,-0.4539,-0.4487,-0.444,-0.4425,-0.4412,-0.4019,-0.3996,-0.4334,-0.4336,-0.4315,-0.4315,-0.4315,-0.4315,0,-0.3907,-0.4105,-0.4247,-0.4479,-0.4537,-0.4565,-0.4672,-0.4686,-0.473,-0.4742,-0.4744,-0.4769,-0.4742,-0.4675,-0.4574,-0.4519,-0.4448,-0.4434,-0.404,-0.3983,-0.4464,-0.4471,-0.4428,-0.4429,-0.4431,-0.4432,-0.4433,0,-0.3855,-0.3929,-0.4189,-0.4276,-0.4383,-0.4468,-0.4528,-0.4632,-0.4663,-0.476,-0.477,-0.4796,-0.4772,-0.4698,-0.4491,-0.4366,-0.4507,-0.4033,-0.3918,-0.4477,-0.4469,-0.4473,-0.4477,-0.3377,-0.3369,-0.3363,-0.3358,0,-0.373,-0.3807,-0.3926,-0.4144,-0.4258,-0.4346,-0.4452,-0.4484,-0.4606,-0.4638,-0.474,-0.4747,-0.4657,-0.4324,-0.4198,-0.4065,-0.4018,-0.3917,-0.4491,-0.3487,-0.3503,-0.3493,-0.3525,-0.3302,-0.3308,-0.3312,-0.3315,-0.3317,-0.3594,-0.3641,-0.382,-0.3986,-0.4121,-0.4194,-0.4166,-0.4148,-0.4153,-0.3987,-0.4416,-0.4185,-0.4211,-0.3694,-0.3607,-0.3479,-0.3727,-0.3581,-0.3589,-0.3606,-0.3553,-0.3578,-0.3383,-0.3388,-0.3393,-0.3398,-0.3402,0,-0.337,-0.3526,-0.367,-0.3839,-0.3757,-0.4019,-0.4091,-0.3783,-0.3544,-0.3491,-0.342,-0.3152,-0.3008,-0.3059,-0.2733,-0.2821,-0.2648,-0.2802,-0.2522,-0.2578,-0.2629,-0.2517,-0.2076,-0.2073,-0.207,-0.2068,0,0,-0.3269,-0.3262,-0.3352,-0.3321,-0.3502,-0.3237,-0.3206,-0.2842,-0.2584,-0.2163,-0.2061,-0.2317,-0.2724,-0.2236,-0.2279,-0.2112,-0.227,-0.2005,-0.3037,-0.2735,-0.2779,-0.3038,-0.2929,0,0,0,0,0]},{"header":{"parameterUnit":"m.s-1","parameterCategory":2,"la1":30.2991,"la2":30.254,"lo1":-89.0895,"lo2":-89.0444,"dy":0.0017,"dx":0.0017,"nx":28,"ny":28,"refTime":"2024-04-10T21:00:00:Z","depth":"2","parameterNumber":3,"parameterNumberName":"V-component_of_CURRENTS"},"data":[0,0,0,0,0,0,0,0,0,0,0,0,0,0,0,0,0,0,0,0,0,0,0,0,0,0,0,0,0,0,0,0,0,0,0,0,0,0,0,0,0,0,0,0,0,0,0,0,0,0,0,0,0,0,0,0,0,0,0.0195,0.0198,0,0.0473,0.0476,0.0479,0.0575,0.0574,0.0573,0.0573,0.0731,0.0736,0.0741,0,0,0,0,0,0,0,0,0,0,0,0,0,-0.0024,-0.0022,0.0194,0.0198,0.0202,0.0472,0.0476,0.048,0.0576,0.0574,0.0573,0.0572,0.0729,0.0735,0.0741,0,0,0,0,0,0,0,0,0,0,0,0,0,0.0142,-0.0021,0.0194,0.0283,0.0294,0.0472,0.0476,0.0481,0.0576,0.0574,0.0573,0.0572,0.0727,0.0734,0.0742,0.0818,0,0,0.0765,0.0769,0,0,0,0,0,0,0,0,0.0132,0.015,0.0266,0.0277,0.029,0.0489,0.0458,0.0588,0.0576,0.0467,0.0573,0.0571,0.0641,0.0655,0.0711,0.0825,0.0832,0.0766,0.0771,0.0774,0.0776,0,0,0,0,0,0,0,0.012,0.014,0.0303,0.027,0.0285,0.0388,0.0408,0.0484,0.0555,0.0477,0.0485,0.0518,0.0646,0.0703,0.0715,0.0834,0.0766,0.0773,0.0777,0.078,0.1074,0.1078,0,0,0,0,0,0,0.0079,0.0128,0.0295,0.0312,0.0208,0.0392,0.0415,0.0426,0.0558,0.0578,0.0519,0.0522,0.0691,0.0706,0.072,0.0816,0.0774,0.0781,0.0785,0.1071,0.1075,0.1079,0,0,0,0,0,0,0.0073,0.009,0.0283,0.0229,0.0261,0.0396,0.0409,0.0432,0.0483,0.0591,0.0608,0.0545,0.069,0.071,0.0807,0.0822,0.0785,0.0791,0.1067,0.1072,0.1077,0.1007,0,0,0,0,0,0,0.0065,0.0085,0.0073,0.0225,0.0262,0.0373,0.0411,0.0438,0.0507,0.0512,0.0619,0.0634,0.0691,0.0795,0.0814,0.0832,0.0797,0.1063,0.107,0.1075,0.1005,0.1008,0.1012,0,0,0,0,0,0.0056,0.0029,0.007,0.0091,0.0242,0.0373,0.0402,0.0494,0.0508,0.0533,0.0623,0.063,0.0847,0.0804,0.0826,0.0845,0.106,0.1068,0.1075,0.1003,0.1008,0.1011,0,0,0,0,0,0,-0.0078,0.0042,0.0089,0.0099,0.0225,0.0389,0.0411,0.0489,0.0585,0.0576,0.0671,0.0694,0.0793,0.0842,0.0792,0.0957,0.0956,0.0967,0.0894,0.0899,0.0902,0.0843,0.0804,0,0,0,0,0,-0.011,-0.0101,0.0056,0.0065,0.0116,0.0266,0.0327,0.0402,0.0513,0.0553,0.0646,0.0744,0.0847,0.0884,0.0984,0.1061,0.1097,0.1095,0.1098,0.11,0.1073,0.1155,0.116,0.1102,0.1102,0.1102,0,0,-0.0155,-0.0092,-0.0083,0.0038,0.0132,0.022,0.0297,0.038,0.0458,0.0553,0.0661,0.0761,0.0878,0.0981,0.1026,0.1011,0.1144,0.1109,0.1109,0.1081,0.1163,0.1167,0.1172,0.1107,0.1107,0.1106,0,0,-0.0227,-0.0188,-0.0186,-0.0084,0.0053,0.016,0.018,0.0354,0.0423,0.0555,0.065,0.0756,0.091,0.1002,0.1064,0.1147,0.117,0.1183,0.113,0.121,0.1214,0.1217,0.1282,0.1291,0.1168,0.1168,0.1168,0,-0.0283,-0.0254,-0.0159,-0.0107,-0.0035,0.0125,0.018,0.0292,0.0483,0.0535,0.0569,0.0827,0.0921,0.1046,0.1083,0.1146,0.1187,0.1092,0.1206,0.1211,0.1215,0.1281,0.1292,0.1166,0.1166,0.1166,0.1166,0,-0.0323,-0.0283,-0.0275,-0.0158,-0.0069,-0.0001,0.0174,0.0263,0.0365,0.0486,0.0635,0.0793,0.0927,0.0996,0.1061,0.1155,0.1174,0.1205,0.1171,0.1215,0.1284,0.1297,0.1162,0.1163,0.1164,0.1164,0,0,-0.0478,-0.0333,-0.0326,-0.0282,-0.0092,-0.003,0.0091,0.0244,0.0298,0.0485,0.0569,0.0775,0.0846,0.0923,0.1034,0.1108,0.1194,0.1151,0.1156,0.117,0.1355,0.1499,0.1527,0.1231,0.1233,0.1235,0.1392,0,-0.0526,-0.0488,-0.0373,-0.0301,-0.026,-0.0081,0.0012,0.0163,0.0304,0.0429,0.0599,0.0726,0.0825,0.088,0.0977,0.1156,0.1222,0.1147,0.1349,0.1355,0.1441,0.1546,0.1194,0.1317,0.1405,0.1407,0.1408,0,-0.059,-0.0558,-0.052,-0.0394,-0.036,-0.0288,-0.0146,-0.0034,0.0177,0.0281,0.0434,0.0587,0.0765,0.0824,0.11,0.1043,0.1175,0.1299,0.1309,0.1467,0.1524,0.1293,0.1337,0.143,0.1428,0.1427,0.1425,0,-0.0774,-0.0656,-0.065,-0.0596,-0.0423,-0.0387,-0.03,-0.0107,-0.0031,0.0175,0.0252,0.0488,0.0618,0.0816,0.1117,0.1093,0.141,0.1413,0.166,0.1671,0.1425,0.1414,0.1563,0.1563,0.1562,0.1562,0.1562,0,-0.0869,-0.0863,-0.0747,-0.0737,-0.0741,-0.0565,-0.053,-0.0401,-0.0222,-0.0134,0.0136,0.0274,0.0618,0.0871,0.1091,0.1452,0.1397,0.167,0.1736,0.1402,0.1387,0.152,0.1513,0.1568,0.1567,0.1565,0.1564,0,-0.1046,-0.0963,-0.096,-0.0846,-0.0823,-0.0838,-0.0704,-0.067,-0.0471,-0.0345,-0.0284,0.0114,0.0489,0.0848,0.1226,0.1444,0.1747,0.1866,0.1469,0.149,0.1942,0.193,0.2145,0.2151,0.2157,0.2162,0.2166,0,-0.1123,-0.1144,-0.1099,-0.113,-0.1082,-0.1066,-0.1048,-0.0845,-0.0773,-0.0425,-0.0369,0.005,0.0387,0.1046,0.1372,0.1786,0.1911,0.1835,0.1762,0.1968,0.2009,0.1988,0.1969,0.1384,0.1381,0.1379,0.1377,0,-0.1275,-0.1269,-0.1277,-0.1363,-0.1374,-0.1358,-0.1298,-0.1269,-0.0993,-0.0826,-0.0466,-0.016,0.0455,0.0857,0.1435,0.1627,0.1754,0.1819,0.2101,0.135,0.128,0.1312,0.1311,0.1357,0.1359,0.1361,0.1362,0.1363,-0.1397,-0.1472,-0.1508,-0.1586,-0.1615,-0.1619,-0.1613,-0.1532,-0.1399,-0.1169,-0.0736,-0.0356,0.021,0.0856,0.1288,0.1629,0.1703,0.1784,0.1775,0.1772,0.1715,0.1667,0.1802,0.1806,0.181,0.1813,0.1816,0,-0.1532,-0.162,-0.1725,-0.1796,-0.1872,-0.1822,-0.1747,-0.1725,-0.1631,-0.1457,-0.1156,-0.0587,-0.0086,0.0546,0.0972,0.1426,0.1254,0.1572,0.1226,0.124,0.1255,0.1161,0.1106,0.1107,0.1108,0.1109,0,0,-0.161,-0.1757,-0.1821,-0.1997,-0.2053,-0.2095,-0.2052,-0.2014,-0.1904,-0.1731,-0.152,-0.1166,-0.0257,-0.002,0.0505,0.0793,0.0878,0.078,0.1262,0.0785,0.0794,0.1264,0.1126,0,0,0,0,0]}],[{"header":{"parameterUnit":"m.s-1","parameterCategory":2,"la1":30.2991,"la2":30.254,"lo1":-89.0895,"lo2":-89.0444,"dy":0.0017,"dx":0.0017,"nx":28,"ny":28,"refTime":"2024-04-10T21:00:00:Z","depth":"4","parameterNumber":2,"parameterNumberName":"U-component_of_CURRENTS"},"data":[0,0,0,0,0,0,0,0,0,0,0,0,0,0,0,0,0,0,0,0,0,0,0,0,0,0,0,0,0,0,0,0,0,0,0,0,0,0,0,0,0,0,0,0,0,0,0,0,0,0,0,0,0,0,0,0,0,0,-0.1625,-0.1626,0,-0.16,-0.1598,-0.1597,-0.1547,-0.1547,-0.1547,-0.1548,-0.1427,-0.1424,-0.1421,0,0,0,0,0,0,0,0,0,0,0,0,0,-0.1494,-0.1496,-0.1625,-0.1626,-0.1627,-0.16,-0.1598,-0.1597,-0.1547,-0.1547,-0.1548,-0.1548,-0.1428,-0.1425,-0.142,0,0,0,0,0,0,0,0,0,0,0,0,0,-0.1506,-0.1497,-0.1625,-0.1608,-0.1607,-0.16,-0.1598,-0.1596,-0.1547,-0.1547,-0.1548,-0.1548,-0.143,-0.1425,-0.142,-0.1383,0,0,-0.1404,-0.1402,0,0,0,0,0,0,0,0,-0.1505,-0.1509,-0.161,-0.161,-0.1609,-0.1588,-0.1509,-0.1525,-0.1547,-0.1556,-0.1548,-0.1548,-0.148,-0.1471,-0.1449,-0.1377,-0.1372,-0.1404,-0.1401,-0.1399,-0.1397,0,0,0,0,0,0,0,-0.1505,-0.1509,-0.1602,-0.1611,-0.161,-0.1556,-0.1558,-0.151,-0.1505,-0.1556,-0.1555,-0.1573,-0.1478,-0.1454,-0.1446,-0.137,-0.1404,-0.14,-0.1396,-0.1394,-0.139,-0.1392,0,0,0,0,0,0,-0.1541,-0.151,-0.1603,-0.1603,-0.1571,-0.156,-0.1561,-0.1584,-0.1508,-0.1501,-0.1572,-0.1571,-0.1462,-0.1452,-0.1441,-0.1509,-0.1399,-0.1394,-0.1391,-0.1387,-0.139,-0.1394,0,0,0,0,0,0,-0.1539,-0.155,-0.1604,-0.1565,-0.157,-0.1564,-0.1588,-0.1584,-0.159,-0.1524,-0.1513,-0.159,-0.1462,-0.1448,-0.144,-0.1499,-0.1392,-0.1387,-0.1383,-0.1388,-0.1392,-0.1569,0,0,0,0,0,0,-0.1535,-0.1549,-0.1571,-0.1568,-0.1574,-0.1619,-0.1589,-0.1583,-0.1605,-0.1602,-0.1535,-0.1522,-0.1461,-0.1448,-0.1435,-0.149,-0.1383,-0.138,-0.1385,-0.1391,-0.1559,-0.1578,-0.1595,0,0,0,0,0,-0.153,-0.1547,-0.1572,-0.1583,-0.1607,-0.1622,-0.1618,-0.1605,-0.1606,-0.161,-0.1583,-0.1526,-0.1474,-0.1446,-0.1429,-0.1485,-0.1377,-0.1384,-0.139,-0.1551,-0.1575,-0.1595,0,0,0,0,0,0,-0.1494,-0.1546,-0.1571,-0.1604,-0.1632,-0.1619,-0.1619,-0.1629,-0.1609,-0.1609,-0.1547,-0.1532,-0.155,-0.1495,-0.1466,-0.1503,-0.1422,-0.1426,-0.155,-0.1572,-0.1589,-0.1606,-0.1379,0,0,0,0,0,-0.1507,-0.1532,-0.1581,-0.1606,-0.1627,-0.1636,-0.1642,-0.1647,-0.1638,-0.163,-0.16,-0.1571,-0.1559,-0.1549,-0.1513,-0.1523,-0.1504,-0.1555,-0.1573,-0.1588,-0.1593,-0.1633,-0.1655,-0.1415,-0.1415,-0.1415,0,0,-0.1502,-0.1532,-0.1549,-0.1601,-0.1613,-0.1641,-0.1636,-0.166,-0.1694,-0.1619,-0.1641,-0.1624,-0.1575,-0.1595,-0.1599,-0.1559,-0.1653,-0.1597,-0.161,-0.1606,-0.1642,-0.1665,-0.1686,-0.142,-0.1419,-0.1418,0,0,-0.1474,-0.1537,-0.1539,-0.1579,-0.1628,-0.1649,-0.1676,-0.1702,-0.1726,-0.1753,-0.1728,-0.1756,-0.1712,-0.1714,-0.1702,-0.1798,-0.1745,-0.1796,-0.1899,-0.1939,-0.1959,-0.1976,-0.201,-0.2028,-0.1808,-0.1808,-0.1808,0,-0.1465,-0.1492,-0.1541,-0.1561,-0.161,-0.1667,-0.1701,-0.1731,-0.1756,-0.1806,-0.1779,-0.1812,-0.177,-0.1833,-0.1872,-0.1839,-0.1851,-0.1821,-0.1963,-0.198,-0.1994,-0.2024,-0.2043,-0.1817,-0.1816,-0.1815,-0.1815,0,-0.1434,-0.1479,-0.1488,-0.155,-0.1607,-0.1647,-0.1734,-0.1798,-0.1851,-0.1892,-0.1982,-0.1955,-0.1983,-0.1991,-0.1953,-0.206,-0.2033,-0.1982,-0.191,-0.2029,-0.2053,-0.2069,-0.1831,-0.1827,-0.1825,-0.1822,0,0,-0.1377,-0.145,-0.1464,-0.1516,-0.1622,-0.1673,-0.1772,-0.1889,-0.1991,-0.2029,-0.2146,-0.2157,-0.2186,-0.2177,-0.2165,-0.2203,-0.2325,-0.2152,-0.215,-0.2189,-0.2427,-0.2288,-0.2291,-0.2308,-0.2312,-0.2314,-0.2412,0,-0.1347,-0.1372,-0.1443,-0.1533,-0.1574,-0.1713,-0.1819,-0.1947,-0.2049,-0.2174,-0.2223,-0.23,-0.2246,-0.229,-0.2328,-0.2318,-0.2371,-0.2303,-0.2301,-0.2301,-0.2165,-0.2305,-0.2324,-0.2424,-0.2427,-0.243,-0.2432,0,-0.132,-0.134,-0.1392,-0.157,-0.1615,-0.1695,-0.1935,-0.2036,-0.2233,-0.2321,-0.2427,-0.2463,-0.2551,-0.2477,-0.2541,-0.2506,-0.2491,-0.2473,-0.2476,-0.2288,-0.219,-0.2271,-0.2459,-0.2457,-0.2455,-0.2453,-0.2452,0,-0.1262,-0.1354,-0.1401,-0.145,-0.1622,-0.1726,-0.1858,-0.2075,-0.2212,-0.2417,-0.2527,-0.2626,-0.2686,-0.2691,-0.2658,-0.2621,-0.2711,-0.2642,-0.251,-0.25,-0.2514,-0.2493,-0.2702,-0.2702,-0.2702,-0.2701,-0.2701,0,-0.1234,-0.1297,-0.1379,-0.1411,-0.1545,-0.1703,-0.1904,-0.2061,-0.2296,-0.2455,-0.2591,-0.2699,-0.2744,-0.2793,-0.274,-0.2678,-0.2777,-0.2558,-0.2526,-0.2589,-0.2576,-0.2526,-0.2505,-0.2705,-0.2704,-0.2704,-0.2703,0,-0.1201,-0.1235,-0.1304,-0.1449,-0.1512,-0.1621,-0.1911,-0.2058,-0.2292,-0.25,-0.257,-0.278,-0.2836,-0.286,-0.2874,-0.2768,-0.2723,-0.2675,-0.2773,-0.274,-0.2471,-0.2457,-0.255,-0.2546,-0.2543,-0.254,-0.2538,0,-0.1183,-0.1193,-0.1303,-0.1333,-0.1405,-0.1583,-0.1721,-0.2012,-0.2162,-0.2512,-0.2586,-0.2759,-0.2851,-0.2779,-0.2803,-0.274,-0.2682,-0.2664,-0.2543,-0.25,-0.2461,-0.2453,-0.2444,-0.2533,-0.2532,-0.2531,-0.253,0,-0.1139,-0.1175,-0.1207,-0.1237,-0.1345,-0.1507,-0.1711,-0.1819,-0.2153,-0.2386,-0.2547,-0.2611,-0.2692,-0.2684,-0.2671,-0.2605,-0.2677,-0.2629,-0.2633,-0.2519,-0.248,-0.2442,-0.2438,-0.2519,-0.252,-0.2521,-0.2522,0,-0.109,-0.109,-0.1085,-0.1122,-0.1241,-0.1353,-0.1518,-0.1704,-0.1898,-0.2288,-0.2321,-0.2504,-0.267,-0.2618,-0.2593,-0.254,-0.2477,-0.2374,-0.239,-0.2404,-0.2303,-0.2228,-0.2193,0,0,0,0,0,-0.1011,-0.0962,-0.0972,-0.0977,-0.1101,-0.1167,-0.1464,-0.1643,-0.1963,-0.2022,-0.218,-0.2248,-0.2299,-0.2386,-0.2288,-0.2479,-0.2447,-0.2356,-0.2326,-0.2455,-0.2469,-0.2359,0,0,0,0,0,0,-0.0926,-0.092,-0.0892,-0.0833,-0.0825,-0.0966,-0.1151,-0.1389,-0.146,-0.1781,-0.1812,-0.2055,-0.2109,-0.2259,-0.22,-0.2225,-0.2158,-0.2474,-0.2468,-0.2448,-0.246,-0.247,-0.2363,0,0,0,0,0]},{"header":{"parameterUnit":"m.s-1","parameterCategory":2,"la1":30.2991,"la2":30.254,"lo1":-89.0895,"lo2":-89.0444,"dy":0.0017,"dx":0.0017,"nx":28,"ny":28,"refTime":"2024-04-10T21:00:00:Z","depth":"4","parameterNumber":3,"parameterNumberName":"V-component_of_CURRENTS"},"data":[0,0,0,0,0,0,0,0,0,0,0,0,0,0,0,0,0,0,0,0,0,0,0,0,0,0,0,0,0,0,0,0,0,0,0,0,0,0,0,0,0,0,0,0,0,0,0,0,0,0,0,0,0,0,0,0,0,0,-0.0233,-0.0232,0,-0.0157,-0.0156,-0.0156,-0.0109,-0.0108,-0.0108,-0.0107,0.0009,0.0012,0.0015,0,0,0,0,0,0,0,0,0,0,0,0,0,-0.0294,-0.0293,-0.0233,-0.0232,-0.023,-0.0157,-0.0156,-0.0156,-0.0109,-0.0108,-0.0108,-0.0107,0.0008,0.0012,0.0015,0,0,0,0,0,0,0,0,0,0,0,0,0,-0.025,-0.0293,-0.0233,-0.0196,-0.0192,-0.0157,-0.0156,-0.0155,-0.0109,-0.0108,-0.0108,-0.0107,0.0007,0.0011,0.0015,0.0024,0,0,0.0027,0.0029,0,0,0,0,0,0,0,0,-0.0253,-0.0249,-0.0203,-0.0199,-0.0194,-0.0139,-0.0135,-0.0092,-0.0109,-0.0144,-0.0107,-0.0107,-0.0035,-0.0028,-0.002,0.003,0.0035,0.0028,0.003,0.0032,0.0033,0,0,0,0,0,0,0,-0.0256,-0.0251,-0.0206,-0.0202,-0.0196,-0.0168,-0.0162,-0.0127,-0.0096,-0.0141,-0.0136,-0.0124,-0.0033,-0.0024,-0.0017,0.0037,0.0028,0.0031,0.0033,0.0035,0.0116,0.0115,0,0,0,0,0,0,-0.0263,-0.0255,-0.0208,-0.0203,-0.0219,-0.0168,-0.0161,-0.016,-0.0097,-0.0086,-0.0124,-0.0122,-0.0031,-0.0021,-0.0012,0.0002,0.0032,0.0035,0.0038,0.0116,0.0115,0.0115,0,0,0,0,0,0,-0.0265,-0.026,-0.0211,-0.0224,-0.0215,-0.0168,-0.0167,-0.0159,-0.0148,-0.0085,-0.0074,-0.0121,-0.003,-0.0018,0.0013,0.0007,0.0037,0.0041,0.0116,0.0116,0.0115,0.003,0,0,0,0,0,0,-0.0267,-0.0262,-0.0272,-0.0225,-0.0215,-0.0218,-0.0167,-0.0158,-0.014,-0.0136,-0.0079,-0.0067,-0.0028,0.0006,0.0016,0.0013,0.0044,0.0116,0.0116,0.0115,0.0033,0.0027,0.0021,0,0,0,0,0,-0.027,-0.031,-0.0273,-0.0267,-0.0228,-0.0219,-0.0213,-0.0177,-0.0141,-0.016,-0.0105,-0.0069,0.0011,0.0009,0.0021,0.0018,0.0117,0.0116,0.0115,0.0036,0.0028,0.0021,0,0,0,0,0,0,-0.0349,-0.0307,-0.0266,-0.029,-0.0258,-0.0211,-0.0229,-0.0182,-0.0154,-0.0149,-0.0075,-0.0061,-0.0042,0.0002,-0.0002,0.0041,0.0071,0.0073,0.0007,-0.0,-0.0006,0.001,0.0047,0,0,0,0,0,-0.0365,-0.038,-0.0324,-0.0341,-0.0334,-0.0273,-0.0264,-0.0234,-0.0195,-0.0182,-0.0131,-0.0077,-0.0036,-0.0007,0.0022,0.005,0.0118,0.0059,0.0053,0.0047,0.0069,0.0169,0.0174,0.0113,0.0113,0.0113,0,0,-0.0395,-0.0375,-0.038,-0.0358,-0.0332,-0.0335,-0.0269,-0.0272,-0.0255,-0.0174,-0.0152,-0.0107,-0.0037,-0.0016,0.0,0.0025,0.0093,0.0047,0.0042,0.0067,0.0169,0.0175,0.0181,0.0113,0.0113,0.0113,0,0,-0.0485,-0.0451,-0.0498,-0.0477,-0.0447,-0.0401,-0.04,-0.0352,-0.0318,-0.0287,-0.0221,-0.0168,-0.0115,-0.0054,-0.0015,-0.0028,0.0046,-0.0029,-0.0029,0.0065,0.0071,0.0078,0.0138,0.0151,-0.0017,-0.0017,-0.0017,0,-0.0521,-0.0558,-0.0511,-0.0545,-0.0522,-0.0432,-0.0454,-0.0413,-0.0353,-0.0304,-0.0298,-0.0166,-0.0125,-0.0041,-0.0053,-0.004,0.0016,-0.0013,0.0058,0.0066,0.0075,0.0136,0.0151,-0.0021,-0.0021,-0.002,-0.002,0,-0.0637,-0.0655,-0.0686,-0.0677,-0.0651,-0.0663,-0.0579,-0.0543,-0.0474,-0.0403,-0.0317,-0.0244,-0.0148,-0.0138,-0.0101,-0.0018,0.0,0.0025,0.0075,0.0076,0.014,0.0157,-0.0027,-0.0026,-0.0025,-0.0024,0,0,-0.073,-0.0761,-0.0768,-0.0765,-0.0713,-0.0699,-0.0659,-0.0576,-0.0518,-0.0443,-0.0356,-0.0278,-0.02,-0.015,-0.0084,0.0,0.0078,0.0033,0.004,0.0091,0.027,0.0211,0.0225,0.0117,0.012,0.0123,0.0278,0,-0.0822,-0.0914,-0.0886,-0.0914,-0.0931,-0.0818,-0.0778,-0.068,-0.0578,-0.0479,-0.0343,-0.0261,-0.0213,-0.0167,-0.0071,0.0046,0.0127,0.0033,0.0265,0.0272,0.022,0.0245,0.0133,0.0292,0.0296,0.0299,0.0301,0,-0.0926,-0.0966,-0.1036,-0.0995,-0.0988,-0.0981,-0.0847,-0.0801,-0.0628,-0.0546,-0.0404,-0.0294,-0.0143,-0.012,0.0119,0.0057,0.0157,0.0245,0.0254,0.0252,0.0248,0.0302,0.0334,0.0331,0.0329,0.0327,0.0325,0,-0.0992,-0.1045,-0.1094,-0.1089,-0.1047,-0.1025,-0.0976,-0.0824,-0.0764,-0.0579,-0.0508,-0.0298,-0.0199,-0.0021,0.0164,0.015,0.0413,0.0418,0.0465,0.0461,0.0505,0.0497,0.0583,0.0583,0.0582,0.0582,0.0582,0,-0.1065,-0.1103,-0.1138,-0.1161,-0.1178,-0.1105,-0.1068,-0.0974,-0.084,-0.0764,-0.0555,-0.0448,-0.0169,0.0018,0.0177,0.0376,0.0432,0.0481,0.051,0.0458,0.0443,0.0515,0.0505,0.0588,0.0587,0.0585,0.0584,0,-0.111,-0.1149,-0.1204,-0.1211,-0.122,-0.1219,-0.1169,-0.113,-0.0988,-0.088,-0.0826,-0.0545,-0.0298,-0.0035,0.026,0.0373,0.0573,0.0622,0.0536,0.0555,0.0553,0.0537,0.0703,0.0702,0.0702,0.0702,0.0701,0,-0.1138,-0.1187,-0.1259,-0.1307,-0.1321,-0.1327,-0.1332,-0.1221,-0.1172,-0.0943,-0.0898,-0.0625,-0.0427,-0.0046,0.0226,0.0547,0.0572,0.0674,0.0631,0.056,0.0573,0.0557,0.0542,0.0701,0.0701,0.07,0.07,0,-0.1176,-0.1217,-0.1261,-0.1384,-0.1432,-0.1461,-0.1458,-0.1435,-0.1281,-0.1169,-0.095,-0.0692,-0.0411,-0.0082,0.0174,0.0398,0.0616,0.0671,0.0673,0.0633,0.056,0.0569,0.0554,0.0699,0.0699,0.0699,0.0699,0,-0.1193,-0.1243,-0.1337,-0.1419,-0.1512,-0.1561,-0.1547,-0.148,-0.141,-0.1162,-0.1099,-0.0745,-0.052,-0.0159,0.0077,0.0299,0.0344,0.0393,0.0411,0.0415,0.028,0.0142,0.0194,0,0,0,0,0,-0.1191,-0.1264,-0.1369,-0.146,-0.1559,-0.1603,-0.1613,-0.1573,-0.1445,-0.1326,-0.1205,-0.0942,-0.0521,-0.0307,-0.0102,0.0049,0.0368,0.0295,0.0428,0.0691,0.0693,0.0578,0,0,0,0,0,0,-0.12,-0.13,-0.1364,-0.1482,-0.1554,-0.1639,-0.1651,-0.1572,-0.1484,-0.133,-0.1114,-0.0926,-0.0528,-0.0654,-0.0109,-0.0028,0.0075,0.0517,0.0521,0.069,0.0692,0.0693,0.0575,0,0,0,0,0]}]]